Location: Gorze? G�rny
(49.8500°N, 19.5000°E)
Time: 12:21:11
(UTC+00:00)

SeaSat 1 - Pass Details

Date: 13 May 2021
Orbit: 745 x 746 km, 108.0° (Epoch: 22 June)

Event Time Altitude Azimuth Distance (km) Brightness Sun altitude
Rises 23:13:18 0° 30° (NNE) 3,202 6.9 -21.1°
Reaches altitude 10° 23:15:35 10° 32° (NNE) 2,274 5.9 -21.0°
Maximum altitude 23:20:32 76° 118° (ESE) 774 2.4 -20.9°
Enters shadow 23:21:56 47° 193° (SSW) 984 2.6 -20.8°
